Regional Weather Roundup
Issued by NWS Upton, NY

Current Version | Previous Version | Graphics & Text | Print | Product List | Glossary Off
Versions: 1 2 3 4 5 6 7 8 9 10 11 12 13 14 15 16 17 18 19 20 21 22 23 24 25 26 27 28 29 30 31 32 33 34 35 36 37 38 39 40 41 42 43 44 45 46 47 48 49 50

303
ASUS41 KOKX 171508
RWROKX

REGIONAL WEATHER ROUNDUP
NATIONAL WEATHER SERVICE NEW YORK NY
1100 AM EDT THU AUG 17 2017

NOTE: "FAIR" INDICATES FEW OR NO CLOUDS BELOW 12,000 FEET WITH NO
SIGNIFICANT WEATHER AND/OR OBSTRUCTIONS TO VISIBILITY.

NYZ071-072-176-178-NJZ106-104-171600-
NEW YORK CITY METRO AREA

CITY           SKY/WX    TMP DP  RH WIND       PRES   REMARKS
Central Park   SUNNY     76  60  57 CALM      30.09F
Bronx Bot Gard   N/A     75  59  57 SW1       30.07F
LaGuardia APRT PTSUNNY   74  63  68 NE9       30.06F
Kennedy INTL   MOSUNNY   78  59  51 SE12      30.07F
Breezy Point     N/A     72 N/A N/A E9          N/A
Newark/Liberty MOSUNNY   78  59  51 VRB5      30.06F
Teterboro      SUNNY     77  59  53 CALM      30.05F
$$

NYZ177-179-078>081-171600-
LONG ISLAND NEW YORK

CITY           SKY/WX    TMP DP  RH WIND       PRES   REMARKS
Jones Beach      N/A     72 N/A N/A E9          N/A
Matinecock PT    N/A     70 N/A N/A NE12        N/A
Farmingdale    SUNNY     76  55  48 SE6       30.07F
MacArthur/ISP  MOSUNNY   77  53  43 SE7       30.06F
Shirley        MOSUNNY   78  55  44 MISG      30.07F
Mt Sinai Harb    N/A    N/A N/A N/A E8          N/A
Westhampton    SUNNY     77  50  38 CALM      30.08F
East Hampton   FAIR      74  50  43 E6        30.07S
Montauk          N/A     72  54  53 NE5       30.09S
$$

NYZ052-065-067-171600-
HUDSON VALLEY

CITY           SKY/WX    TMP DP  RH WIND       PRES   REMARKS
White Plains   MOSUNNY   74  58  57 SE7       30.07F
Larchmont Harb   N/A     70 N/A N/A NE9         N/A
Croton On Huds   N/A     72 N/A N/A W5          N/A
Newburgh       MOSUNNY   72  59  64 VRB5      30.10F
Montgomery     MOSUNNY   72  58  61 NE3       30.09S
Poughkeepsie   SUNNY     72  56  57 W3        30.07F
Albany         MOSUNNY   71  53  52 NE3       30.10S
$$

NJZ001-105-106-008-010-013-015-019>022-104-171600-
NEW JERSEY

CITY           SKY/WX    TMP DP  RH WIND       PRES   REMARKS
Newark/Liberty MOSUNNY   78  59  51 VRB5      30.06F
Teterboro      SUNNY     77  59  53 CALM      30.05F
Caldwell       MOSUNNY   75  60  59 E3        30.07F
Somerville     SUNNY     80  62  54 VRB3      30.05F
Linden         FAIR      78  57  47 SE5       30.06F
Perth Amboy      N/A     72 N/A N/A E12         N/A
Sussex         SUNNY     74  60  61 CALM      30.08F
Andover          N/A     76  60  57 CALM      30.08F
Trenton        SUNNY     79  61  53 E5        30.06S
Millville      SUNNY     83  71  67 SE5       30.04F
Atlantic City  SUNNY     82  69  64 E6        30.05S
Wrightstown    SUNNY     79  64  61 E3        30.03S
Toms River     SUNNY     81  64  56 E7        30.06S
Belmar         SUNNY     77  65  66 NE10      30.07F
$$

PAZ047>061-062-071-171600-
EASTERN PENNSYLVANIA

CITY           SKY/WX    TMP DP  RH WIND       PRES   REMARKS
Philadelphia   MOSUNNY   82  62  50 E5        30.05F
Allentown      SUNNY     78  61  55 E6        30.07F
Scranton       SUNNY     77  61  57 CALM      30.07F
$$

CTZ002-004>006-009-010-012-RIZ004-006-007-MAZ004-011-015-171600-
SOUTHERN NEW ENGLAND
 IN CT

CITY           SKY/WX    TMP DP  RH WIND       PRES   REMARKS
Bradley INTL   PTSUNNY   73  52  46 E5        30.09F
Hartford       SUNNY     74  56  53 VRB3      30.07F
Danbury        SUNNY     74  57  55 CALM      30.09F
Wtrbury/Oxford SUNNY     71  54  54 CALM      30.10F
Norwalk Harbor   N/A     70 N/A N/A NE9         N/A
Bridgeport     SUNNY     72  58  61 E7        30.08S
Meriden        SUNNY     75  51  43 N5        30.07F
New Haven      MOSUNNY   73  58  59 S7        30.08F
Chester        NOT AVBL
Groton         MOSUNNY   73  53  49 S6        30.06F
Wilimantic     SUNNY     74  50  42 CALM      30.08F

 IN RI

CITY           SKY/WX    TMP DP  RH WIND       PRES   REMARKS
Providence     PTSUNNY   76  50  40 NE8       30.08F
Block Island   SUNNY     71  56  58 NE6       30.09R
Westerly       CLOUDY    77  50  38 E3        30.08F
 IN MA

CITY           SKY/WX    TMP DP  RH WIND       PRES   REMARKS
Boston         PTSUNNY   74  48  39 CALM      30.06F
Worcester      MOSUNNY   70  46  42 CALM      30.10F
Westfield      SUNNY     74  48  39 CALM      30.09S
Provincetown   MOSUNNY   70  56  61 W7        30.07S
Nantucket      CLOUDY    74  55  51 CALM      30.06S
$$

ANZ330-335-338-340-345-350-353-355-171600-
COASTAL MARINE OBSERVATIONS


STATION/POSITION TIME  SKY/WX   TEMP    WIND        PRES    VSBY  WAVE
                                AIR SEA DIR/SP/G                  HT/PER
                 (UTC)          (F)     (DEG/KT/KT) (MB)    (MI)  (FT/S)
NY HARB ENTRANCE 1350            73 75   80/ 14/ 16 1017.7          2/ 9
GREAT SOUTH BAY  1430            72 77   80/ 10/ 14   N/A
23 SSW MONTAUK P 1350            70 71              1018.6          4/10
15 E BARNEGAT LI 1430               76                N/A           3/ 8
HUDSON CANYON    1350            75 75   80/  4/  4 1016.9          2/ 8
KINGS POINT      1430            71 73   40/ 10/ 11 1018.1
EXECUTION ROCKS  NOT AVBL
WESTERN LI SOUND NOT AVBL
CENTRAL LI SOUND NOT AVBL
EASTERN LI SOUND NOT AVBL
ROBBINS REEF     1430                    30/  6/  7 1018.7
$$


>>>>>>>>>>>>>>>>>>>>>>>>>>>> KEY <<<<<<<<<<<<<<<<<<<<<<<<<<<
>                                                          <
>     SKY/WX - Sky Condition/Present Weather               <
>     TMP    - Temperature in Fahrenheit                   <
>     DP     - Dew Point in Fahrenheit                     <
>     RH     - Relative Humidity in Percent                <
>     WIND   - Direction (from) and Speed in MPH           <
>     PRES   - Mean Sea Level Pressure (inches of Hg)      <
>     WCI    - Wind Chill Index                            <
>     VSB    - VISIBILITY IN MILES                         <
>     HX     - HEAT INDEX                                  <
>     TC     - TEMPERATURE IN CELSIUS                      <
>     VRB    - VARIABLE WIND DIRECTION                     <
>                                                          <
>>>>>>>>>>>>>>>>>>>>>>>>>>>> KEY <<<<<<<<<<<<<<<<<<<<<<<<<<<




USA.gov is the U.S. government's official web portal to all federal, state and local government web resources and services.